Tracking 18957 objects as of 21-Jan-2018
HD Live streaming from Space Station
objects crossing your sky now

NOAA 2 (ITOS-D)

Track NOAA 2 (ITOS-D) now!
10-day predictions
NOAA 2 (ITOS-D) is classified as:


NORAD ID: 6235
Int'l Code: 1972-082A
Perigee: 1,455.7 km
Apogee: 1,461.7 km
Inclination: 101.7 °
Period: 114.9 minutes
Semi major axis: 7829 km
RCS: 2.925 m2 (large)
Launch date: October 15, 1972
Source: United States (US)
Launch site: AIR FORCE WESTERN TEST RANGE (AFWTR)
aabbcc
Your satellite tracking list
Your tracking list is empty




NASA's NSSDC Master Catalog

Two Line Element Set (TLE):
1  6235U 72082A   18020.86856670 -.00000042 +00000-0 +18332-4 0  9990
2  6235 101.7175 347.6631 0003831 289.5676 098.1243 12.53100307070486
Source of the keplerian elements: AFSPC